User: anonymous   Login
Location: Riverside
(39.1734°N, 77.8561°W)
Time: 19:26:18
(UTC+00:00)
Language:

CAS-4A - Orbit

View from above orbital plane
View from above orbital plane
View from above satellite
View from above satellite

Ground track
Ground track

The orbit data is extracted from the following two-line orbital elements,

1 42761U 17034D   19315.45131394 -.00000022  00000-0  12202-4 0  9990
2 42761  43.0166 149.6238 0010733  89.3820 347.0432 15.09754668132863
Epoch (UTC): 11 November 2019 10:49:53
Eccentricity: 0.0010733
inclination: 43.0166°
perigee height: 529 km
apogee height: 544 km
right ascension of ascending node: 149.6238°
argument of perigee: 89.3820°
revolutions per day: 15.09754668
mean anomaly at epoch: 347.0432°
orbit number at epoch: 13286

The dashed part of the orbit path shows where the satellite is in the earth's shadow,  

DLR